Regional Weather Roundup
Issued by NWS

Home | Current Version | Previous Version | Graphics & Text | Print | Product List | Glossary On
Versions: 1 2 3 4 5 6 7 8 9 10 11 12 13 14 15 16 17 18 19 20 21 22 23 24 25 26 27 28 29 30 31 32 33 34 35 36 37 38 39 40 41 42 43 44 45 46 47 48 49 50
000
ASUS44 KMEG 260910
RWRTN
TENNESSEE HOURLY STATE WEATHER ROUNDUP
NATIONAL WEATHER SERVICE MEMPHIS TN
400 AM CDT WED APR 26 2017

TNZ002-004-019-021-049-052-054-088>092-261000-
WEST TENNESSEE

CITY           SKY/WX    TMP DP  RH WIND       PRES   REMARKS
MEMPHIS INTL   MOCLDY    66  58  75 S9        29.62S
NWS MEMPHIS      N/A     64 N/A N/A MISG        N/A
JACKSON        CLEAR     63  56  78 S6          N/A
DYERSBURG      MOCLDY    65  55  70 VRB6      29.63R
SOMERVILLE     PTCLDY    63  55  77 SE3       29.64R
UNION CITY     MOCLDY    64  55  72 S9        29.61S
BOLIVAR        PTCLDY    61  55  82 S5        29.66R
PARIS          CLEAR     59  54  82 S5        29.65R
HUNTINGDON     MOCLDY    61  55  82 S6        29.65R
LEXINGTON      CLEAR     55  54  94 CALM      29.67R
SAVANNAH       PTCLDY    63  57  82 S6        29.68R
$$

TNZ008-025-027-028-033-062-065-066-261000-
NORTH MIDDLE TENNESSEE

CITY           SKY/WX    TMP DP  RH WIND       PRES   REMARKS
NASHVILLE      CLEAR     59  55  87 CALM      29.70R
PORTLAND       CLEAR     59  55  88 S6        29.69R
CLARKSVILLE    CLEAR     57  53  86 SE6       29.67R
SMYRNA         CLEAR     53  53 100 CALM      29.71R
COOKEVILLE     CLEAR     59  55  88 S6        29.71S
GALLATIN       CLEAR     55  54  94 CALM      29.73R
CROSSVILLE     CLEAR     55  52  89 CALM      29.76S
$$

TNZ061-075-076-078-094-096-097-261000-
SOUTH MIDDLE TENNESSEE

CITY           SKY/WX    TMP DP  RH WIND       PRES   REMARKS
FAYETTEVILLE   PTCLDY    61  55  82 S8        29.71R
TULLAHOMA      CLEAR     54  52  94 CALM      29.73R
WINCHESTER     CLEAR     57  54  88 E8        29.72F
MCMINNVILLE    CLEAR     52  52 100 CALM      29.72S
COLUMBIA       CLEAR     61  61 100 CALM      29.69R
SHELBYVILLE    CLEAR     59  55  88 SE6       29.71S
$$

TNZ017-018-042-046-047-261000-
NORTHEAST TENNESSEE

CITY           SKY/WX    TMP DP  RH WIND       PRES   REMARKS
TRI CITIES     FOG       50  49  96 CALM      29.77R VSB 1/2
ELIZABETHTON   CLEAR     52  50  93 CALM      29.77S
$$

TNZ012-013-036-069-073-074-261000-
CENTRAL EAST TENNESSEE

CITY           SKY/WX    TMP DP  RH WIND       PRES   REMARKS
KNOXVILLE      PTCLDY    53  51  93 E3        29.74R
OAK RIDGE      CLEAR     53  51  93 CALM      29.76R
DOWNTOWN KNOXV FOG       54  54 100 CALM      29.75S VSB 1/2
GATLINBURG     CLEAR     50  50 100 CALM      29.75R
MORRISTOWN     PTCLDY    54  54 100 CALM      29.75R
JACKSBORO      FOG       52  52 100 CALM      29.78R VSB 0
$$

TNZ083-085-099-261000-
SOUTHEAST TENNESSEE

CITY           SKY/WX    TMP DP  RH WIND       PRES   REMARKS
CHATTANOOGA    CLEAR     57  55  93 CALM      29.74S
$$

SKY/WX REPORTED AS FAIR MEANS FEW OR NO CLOUDS BELOW
12 THOUSAND FEET.





USA.gov is the U.S. government's official web portal to all federal, state and local government web resources and services.